Flag for U.S.A. Weather past 2 weeks in Cape Coral, Florida, U.S.A.

Now
90 °F

Partly sunny.


Feels Like: 95 °F
Forecast: 74 / 89 °F
Wind: No wind

Location: Page Field

Current Time: Jul 6, 2015 at 5:07:22 PM

Latest Report: Jul 6, 2015 at 3:53 PM


Visibility: 10 mi

Pressure: 30.12 "Hg

Humidity: 52%

Dew point: 70 °F

Location of Cape CoralLocation

Historic Weather in Cape Coral — Graph

°F

Cape Coral temperature yesterday

Maximum temperature yesterday: 92 °F (at 1:53 PM)
Minimum temperature yesterday: 73 °F (at 8:53 PM)
Average temperature yesterday: 81 °F

Past Weeks' High & Low Weather Summary

 TemperatureHumidityPressure
High94 °F (Jun 21, 3:53 PM)100% (Jun 25, 3:53 AM)30.25 "Hg (Jun 25, 3:53 AM)
Low72 °F (Jul 6, 2:53 AM)40% (Jul 1, 1:53 PM)30.01 "Hg (Jun 28, 3:53 AM)
Average82 °F77%30.09 "Hg
* Reported Jun 21 3:53 PM — Jul 6 3:53 PM, Cape Coral, Weather by CustomWeather, © 2015

Note: Actual official high and low records may vary slightly from our data, if they occured in-between our weather recording intervals... More about our weather records

Advertising

Cape Coral weather history for previous 24 hours

 ConditionsComfort  
Time TempWeatherWind HumidityBarometerVisibility
3:53 PM
Mon, Jul 6
90 °FPartly sunny.No wind52%30.12 "Hg10 mi
2:53 PM90 °FScattered clouds.6 mph56%30.13 "Hg10 mi
1:53 PM89 °FScattered clouds.7 mph61%30.16 "Hg10 mi
12:53 PM87 °FSunny.3 mph67%30.17 "Hg10 mi
11:53 AM86 °FSunny.7 mph70%30.19 "Hg10 mi
10:53 AM84 °FSunny.6 mph72%30.19 "Hg10 mi
9:53 AM81 °FSunny.No wind77%30.18 "Hg10 mi
8:53 AM77 °FSunny.5 mph88%30.17 "Hg10 mi
7:53 AM75 °FSunny.No wind90%30.16 "Hg10 mi
6:53 AM73 °FClear.No wind97%30.15 "Hg10 mi
5:53 AM73 °FClear.No wind97%30.12 "Hg10 mi
4:53 AM73 °FClear.6 mph94%30.10 "Hg10 mi
3:53 AM72 °FClear.5 mph97%30.09 "Hg10 mi
2:53 AM72 °FClear.3 mph97%30.08 "Hg10 mi
1:53 AM73 °FLight rain. Passing clouds.8 mph94%30.11 "Hg10 mi
12:53 AM73 °FLight rain. Passing clouds.5 mph94%30.15 "Hg10 mi
11:53 PM
Sun, Jul 5
73 °FThunderstorms. Fog.8 mph97%30.20 "Hg5 mi
11:00 PM73 °FRain. Partly cloudy.6 mph97%30.25 "Hg7 mi
10:01 PM73 °FThunderstorms. Fog.5 mph97%30.18 "Hg6 mi
8:53 PM73 °FStrong thunderstorms. Fog.10 mph94%30.17 "Hg1 mi
7:53 PM84 °FThundershowers. Sunny.7 mph67%30.09 "Hg10 mi
6:53 PM87 °FThunderstorms. Broken clouds.14 mph72%30.08 "Hg10 mi
5:53 PM91 °FThundershowers. Passing clouds.8 mph61%30.07 "Hg10 mi
Weather by CustomWeather, © 2015

See weather overviewHow to use our weather pages